Regional Weather Roundup
Issued by NWS

Home | Current Version | Previous Version | Graphics & Text | Print | Product List | Glossary On
Versions: 1 2 3 4 5 6 7 8 9 10 11 12 13 14 15 16 17 18 19 20 21 22 23 24 25 26 27 28 29 30 31 32 33 34 35 36 37 38 39 40 41 42 43 44 45 46 47 48 49 50
000
ASUS43 KBIS 191410
RWRND

NORTH DAKOTA REGIONAL WEATHER ROUNDUP
NATIONAL WEATHER SERVICE BISMARCK ND
800 AM CST SUN NOV 19 2017

NOTE: "FAIR" INDICATES FEW OR NO CLOUDS BELOW 12,000 FEET WITH NO
SIGNIFICANT WEATHER AND/OR OBSTRUCTIONS TO VISIBILITY.


NDZ001>003-009>011-017-191500-
NORTHWEST NORTH DAKOTA

CITY           SKY/WX    TMP DP  RH WIND       PRES   REMARKS
WILLISTON      CLOUDY    20  17  88 CALM      29.87S
MINOT          CLEAR     29  21  72 SW16      29.83S WCI  17
MINOT AFB      CLEAR     24  19  81 SW7       29.82S WCI  16
$$

NDZ018>021-031>035-040>046-191500-
SOUTHWEST NORTH DAKOTA

CITY           SKY/WX    TMP DP  RH WIND       PRES   REMARKS
BISMARCK       CLOUDY    21  18  88 SW6       29.92F WCI  13
DICKINSON      CLOUDY    27  19  72 W10       29.87S WCI  17
GARRISON         N/A     25  22  88 W8        29.86R WCI  16
HETTINGER ARPT CLOUDY    18  13  80 NW7       29.93F WCI   9
$$

NDZ004>008-012>016-024-026-027-054-191500-
NORTHEAST NORTH DAKOTA

CITY           SKY/WX    TMP DP  RH WIND       PRES   REMARKS
GRAND FORKS    MOCLDY    17  13  84 S6        29.91F WCI   9
GRND FRKS AFB  CLOUDY    16  12  86 SE6       29.89F WCI   7
DEVILS LAKE    CLEAR     24  20  84 SW8       29.84F WCI  15
$$

NDZ022-023-025-028>030-036>039-047>053-191500-
SOUTHEAST NORTH DAKOTA

CITY           SKY/WX    TMP DP  RH WIND       PRES   REMARKS
FARGO          CLOUDY    19  14  81 S6        29.95F WCI  11
JAMESTOWN      CLEAR     22  19  89 S5        29.89F WCI  16
$$





USA.gov is the U.S. government's official web portal to all federal, state and local government web resources and services.